Weather observations for the past three days for
Evergreen, Middleton Field
Metric (Imperial)
Date Time (cdt) Wind (kph) Vis. (km) Weather Sky Cond. Temperature (ºC) Relative Humidity Wind Chill (°C) Heat Index (°C) Pressure Precipitation (cm)
Air Dwpt 6 hour altimeter (cm) sea level (mb) 1 hr 3 hr 6 hr
Max. Min.
15 18:53 Calm 16.09 Thunderstorm FEW048 28.3 23.3 35 27.2 74% 32 76.17 1015.1 0.58 1.32
15 17:51 S 9 1.21 Thunderstorm Heavy Rain FEW022 SCT041 BKN060 27.2 21.7 72% 29 76.17 1015.1 0.74
15 16:53 SW 9 16.09 A Few Clouds FEW055 33.3 21.7 51% 37 76.12 1014.3
15 15:53 Vrbl 9 16.09 A Few Clouds FEW060 34.4 22.2 49% 39 76.17 1015.0
15 13:53 Calm 16.09 Fair CLR 34.4 21.7 48% 38 76.3 1016.8
15 12:53 Calm 16.09 Fair CLR 33.3 22.2 33.3 23.3 52% 38 76.38 1017.8
15 11:53 S 9 16.09 Fair CLR 31.7 22.8 59% 36 76.43 1018.4
15 10:53 Calm 16.09 Fair CLR 28.9 22.2 67% 32 76.48 1019.1
15 09:53 Vrbl 6 16.09 Fair CLR 27.8 22.2 72% 30 76.5 1019.7
15 08:53 Calm 16.09 Fair CLR 25.6 22.2 82% 27 76.56 1020.1
15 07:53 Calm 16.09 Fair CLR 24.4 22.2 88% 25 76.48 1019.3
15 06:53 S 6 16.09 Fair CLR 23.3 22.2 25 22.8 94% 76.45 1018.7
15 05:53 Calm 14.48 Fair CLR 22.8 21.7 94% 76.4 1018.1
15 04:53 Calm 16.09 Fair CLR 22.8 21.7 94% 76.35 1017.4
15 03:53 Calm 14.48 Fair CLR 23.3 21.7 91% 76.3 1016.8
15 02:53 Calm 16.09 Fair CLR 23.3 21.7 91% 76.3 1016.8
15 01:53 Calm 16.09 Fair CLR 25 21.7 82% 26 76.35 1017.6
15 00:53 Calm 16.09 Fair CLR 25 22.2 29.4 25 85% 26 76.43 1018.5
14 23:53 Calm 16.09 Fair CLR 25.6 22.2 82% 27 76.45 1018.9
14 22:53 Calm 16.09 Fair CLR 25.6 23.3 87% 27 76.43 1018.4
14 21:53 Calm 16.09 Fair CLR 26.7 23.3 82% 29 76.43 1018.5
14 20:53 S 6 16.09 A Few Clouds FEW027 27.2 23.3 79% 30 76.43 1018.4
14 19:53 Calm 16.09 Fair CLR 28.9 23.3 72% 33 76.38 1017.8
14 18:53 SW 7 16.09 Fair CLR 29.4 23.3 36.1 29.4 70% 34 76.3 1017.0
14 17:53 SW 13 16.09 Fair CLR 30.6 23.9 67% 36 76.3 1016.9
14 16:53 W 6 16.09 Fair CLR 35.6 21.1 43% 39 76.3 1016.8
14 15:53 W 6 16.09 A Few Clouds FEW055 35.6 21.1 43% 39 76.35 1017.4
14 14:53 SW 9 16.09 Fair CLR 35.6 22.8 48% 41 76.38 1017.7
14 13:53 Calm 16.09 Fair CLR 35 22.2 47% 40 76.45 1018.9
14 12:53 Vrbl 7 16.09 Partly Cloudy SCT049 34.4 22.8 35 23.9 51% 40 76.53 1019.8
14 11:53 SE 6 16.09 Fair CLR 34.4 22.8 51% 40 76.58 1020.4
14 10:53 Calm 16.09 Fair CLR 33.3 23.9 58% 39 76.58 1020.7
14 09:53 NE 6 16.09 Fair CLR 32.2 23.9 62% 38 76.61 1020.8
14 08:53 NW 7 16.09 Fair CLR 30 23.9 70% 35 76.61 1021.0
14 07:53 Calm 16.09 Fair CLR 26.7 23.9 85% 29 76.63 1021.1
14 06:53 Calm 8.05 Fog/Mist CLR 23.9 22.2 23.9 22.2 90% 23 76.61 1020.8
14 05:53 Calm 6.44 Fog/Mist CLR 22.8 21.7 94% 76.56 1020.3
14 04:53 Calm 6.44 Fog/Mist CLR 22.8 21.7 94% 76.53 1019.7
14 03:53 Calm 6.44 Fog/Mist CLR 22.8 21.7 94% 76.48 1019.2
14 02:53 Calm 6.44 Fog/Mist CLR 23.3 22.2 94% 76.5 1019.5
14 01:53 Calm 6.44 Fog/Mist CLR 23.3 22.2 94% 76.53 1020.0
14 00:53 Calm 9.66 Fog/Mist CLR 23.9 22.8 29.4 23.9 94% 23 76.58 1020.6
13 23:53 Calm 14.48 Fair CLR 23.9 22.8 94% 23 76.61 1020.9
13 22:53 Calm 16.09 Fair CLR 25 22.8 88% 26 76.63 1021.2
13 21:53 S 6 16.09 Fair CLR 25.6 22.8 85% 27 76.63 1021.1
13 20:53 SW 6 16.09 Fair CLR 26.7 22.8 79% 29 76.58 1020.6
13 19:53 S 7 16.09 Fair CLR 27.2 23.9 82% 30 76.53 1019.7
13 18:53 SW 6 16.09 Fair CLR 28.9 25 36.1 28.9 80% 34 76.53 1019.7
13 17:53 SW 7 16.09 Fair CLR 30.6 25 72% 37 76.53 1019.7
13 16:53 S 7 16.09 A Few Clouds FEW100 31.7 24.4 65% 38 76.5 1019.6
13 15:53 N 6 16.09 Partly Cloudy SCT100 35 21.7 46% 39 76.5 1019.5
13 14:53 Calm 16.09 Partly Cloudy SCT110 34.4 21.7 48% 38 76.56 1020.4
13 13:53 NE 7 16.09 Mostly Cloudy BKN050 34.4 22.8 51% 40 76.63 1021.1
13 12:53 Vrbl 6 16.09 A Few Clouds FEW080 34.4 21.7 35 23.3 48% 38 76.66 1021.6
13 11:53 Vrbl 6 16.09 Fair CLR 33.9 22.8 52% 39 76.68 1021.9
13 10:53 Calm 16.09 Fair CLR 32.2 22.8 58% 37 76.71 1022.2
13 09:53 Vrbl 6 16.09 Fair CLR 31.7 24.4 65% 38 76.71 1022.4
13 08:53 Calm 16.09 Fair CLR 28.9 23.9 74% 33 76.71 1022.3
13 07:53 Vrbl 6 16.09 Fair CLR 26.1 23.3 85% 28 76.68 1022.0
13 06:53 Calm 6.44 Fog/Mist CLR 23.3 22.2 23.9 22.2 94% 76.63 1021.3
13 05:53 Calm 6.44 Fog/Mist CLR 22.2 21.1 94% 76.58 1020.6
13 04:53 Calm 6.44 Fog/Mist CLR 22.2 21.7 97% 76.53 1020.0
13 03:53 Calm 8.05 Fog/Mist CLR 22.8 22.2 96% 76.5 1019.4
13 02:53 Calm 8.05 Fog/Mist CLR 22.8 22.2 96% 76.45 1018.9
13 01:53 Calm 12.87 Fair CLR 23.3 21.7 91% 76.48 1019.1
13 00:53 Calm 12.87 Fair CLR 23.9 22.2 30.6 23.9 90% 23 76.5 1019.4
12 23:53 Calm 16.09 Fair CLR 24.4 22.8 91% 24 76.53 1019.9
12 22:53 Calm 16.09 Fair CLR 25.6 22.8 85% 27 76.53 1020.0
12 21:53 Calm 16.09 Fair CLR 26.1 22.8 82% 28 76.53 1019.8
12 20:53 SW 11 16.09 Fair CLR 27.2 22.8 77% 30 76.48 1019.1
12 19:53 S 6 16.09 Overcast OVC110 28.9 23.9 74% 33 76.45 1018.8
Date Time (cdt) Wind (kph) Vis. (km) Weather Sky Cond. Air Dwpt Max. Min. Relative Humidity Wind Chill (°C) Heat Index (°C) altimeter (cm) sea level (mb) 1 hr 3 hr 6 hr
6 hour
Temperature (ºC) Pressure Precipitation (cm)